SHT2V EGPH-EGLL

Flight info

Callsign SHT2V
Flight time N/A
Altitude 33000
Route GOSAM DCT FENIK L612 ELBUS DCT LAKEY DCT NUGRA
Aircraft A320/M-SDE3FGHIRWY/LB1

Departure

Time 2026-05-03 20:25
Airport Edinburgh Airport (EGPH)

Arrival

Time N/A
Airport London Heathrow Airport (EGLL)
Time Latitude Longitude Altitude Speed Heading
2026-05-03 20:15 55.95002 -3.36431 115 ft 0 kts 239°
2026-05-03 20:15 55.95000 -3.36440 114 ft 2 kts 239°
2026-05-03 20:15 55.94986 -3.36480 114 ft 5 kts 239°
2026-05-03 20:15 55.94962 -3.36550 112 ft 8 kts 239°
2026-05-03 20:16 55.94928 -3.36648 113 ft 11 kts 238°
2026-05-03 20:16 55.94898 -3.36778 115 ft 12 kts 286°
2026-05-03 20:16 55.94917 -3.36922 115 ft 14 kts 247°
2026-05-03 20:16 55.94862 -3.37083 115 ft 17 kts 239°
2026-05-03 20:17 55.94798 -3.37275 115 ft 20 kts 238°
2026-05-03 20:17 55.94722 -3.37497 113 ft 22 kts 239°
2026-05-03 20:17 55.94637 -3.37749 115 ft 25 kts 239°
2026-05-03 20:17 55.94542 -3.38026 113 ft 27 kts 239°
2026-05-03 20:18 55.94439 -3.38330 115 ft 30 kts 239°
2026-05-03 20:18 55.94364 -3.38551 115 ft 21 kts 239°
2026-05-03 20:18 55.94291 -3.38764 114 ft 16 kts 238°
2026-05-03 20:18 55.94295 -3.38875 115 ft 11 kts 317°
2026-05-03 20:19 55.94316 -3.38899 114 ft 0 kts 329°
2026-05-03 20:20 55.94320 -3.38903 114 ft 3 kts 329°
2026-05-03 20:20 55.94373 -3.38959 114 ft 14 kts 329°
2026-05-03 20:21 55.94437 -3.38901 114 ft 12 kts 53°
2026-05-03 20:21 55.94463 -3.38833 114 ft 0 kts 59°
2026-05-03 20:24 55.94511 -3.38693 113 ft 45 kts 59°
2026-05-03 20:24 55.94789 -3.37868 115 ft 109 kts 58°
2026-05-03 20:24 55.95277 -3.36441 151 ft 152 kts 59°
2026-05-03 20:25 55.95820 -3.34848 787 ft 149 kts 59°
2026-05-03 20:25 55.96507 -3.33466 1438 ft 151 kts 42°
2026-05-03 20:25 55.97328 -3.32156 1784 ft 170 kts 42°
2026-05-03 20:25 55.98289 -3.30611 2098 ft 193 kts 42°
2026-05-03 20:26 55.99353 -3.28941 2439 ft 218 kts 36°
2026-05-03 20:26 56.00832 -3.28048 2869 ft 241 kts 358°
2026-05-03 20:26 56.02416 -3.29133 3562 ft 254 kts 319°
2026-05-03 20:26 56.03337 -3.31824 4485 ft 262 kts 284°
2026-05-03 20:27 56.03345 -3.35105 5432 ft 268 kts 263°
2026-05-03 20:27 56.02935 -3.38382 6403 ft 272 kts 256°
2026-05-03 20:27 56.02378 -3.41640 7301 ft 275 kts 253°
2026-05-03 20:27 56.01793 -3.44914 8227 ft 277 kts 253°
2026-05-03 20:28 56.01226 -3.48225 9133 ft 280 kts 255°
2026-05-03 20:28 56.00687 -3.51582 10025 ft 282 kts 255°
2026-05-03 20:28 56.00158 -3.55078 10435 ft 302 kts 256°
2026-05-03 20:28 55.99606 -3.58857 10660 ft 326 kts 256°
2026-05-03 20:29 55.99031 -3.62877 11046 ft 340 kts 256°
2026-05-03 20:29 55.98451 -3.66947 11688 ft 345 kts 256°
2026-05-03 20:29 55.97854 -3.71138 12383 ft 349 kts 256°
2026-05-03 20:29 55.97251 -3.75358 13091 ft 353 kts 256°
2026-05-03 20:30 55.96640 -3.79627 13800 ft 357 kts 256°
2026-05-03 20:30 55.96018 -3.83941 14421 ft 361 kts 256°
2026-05-03 20:30 55.95383 -3.88294 15061 ft 364 kts 256°
2026-05-03 20:30 55.94742 -3.92676 15680 ft 366 kts 256°
2026-05-03 20:31 55.94069 -3.97078 16272 ft 370 kts 251°
2026-05-03 20:31 55.92897 -4.01181 16864 ft 375 kts 235°
2026-05-03 20:31 55.91083 -4.04557 17463 ft 381 kts 219°
2026-05-03 20:31 55.88926 -4.07334 18085 ft 384 kts 217°
2026-05-03 20:32 55.87483 -4.09163 18469 ft 386 kts 217°
2026-05-03 20:32 55.84539 -4.12890 19186 ft 390 kts 217°
2026-05-03 20:32 55.83071 -4.14747 19531 ft 393 kts 217°
2026-05-03 20:32 55.80833 -4.17576 20068 ft 397 kts 217°
2026-05-03 20:33 55.78573 -4.20431 20593 ft 400 kts 216°
2026-05-03 20:33 55.76128 -4.22854 21073 ft 406 kts 202°
2026-05-03 20:33 55.73392 -4.24186 21556 ft 411 kts 189°
2026-05-03 20:33 55.70527 -4.24496 22026 ft 415 kts 178°
2026-05-03 20:34 55.67648 -4.23858 22503 ft 419 kts 167°
2026-05-03 20:34 55.64887 -4.22363 22967 ft 422 kts 158°
2026-05-03 20:34 55.62239 -4.20090 23437 ft 425 kts 151°
2026-05-03 20:34 55.59641 -4.17542 23846 ft 428 kts 150°
2026-05-03 20:35 55.57025 -4.14974 24249 ft 431 kts 150°
2026-05-03 20:35 55.54401 -4.12401 24619 ft 434 kts 150°
2026-05-03 20:35 55.51748 -4.09805 24997 ft 437 kts 150°
2026-05-03 20:35 55.49075 -4.07204 25357 ft 440 kts 150°
2026-05-03 20:36 55.46365 -4.04662 25722 ft 443 kts 151°
2026-05-03 20:36 55.43609 -4.02175 26096 ft 446 kts 152°
2026-05-03 20:36 55.40829 -3.99718 26468 ft 449 kts 152°
2026-05-03 20:36 55.38023 -3.97253 26833 ft 452 kts 152°
2026-05-03 20:37 55.35196 -3.94765 27202 ft 455 kts 152°
2026-05-03 20:37 55.32359 -3.92255 27578 ft 458 kts 151°
2026-05-03 20:37 55.29507 -3.89713 27943 ft 461 kts 151°
2026-05-03 20:37 55.26643 -3.87149 28294 ft 464 kts 151°
2026-05-03 20:38 55.23765 -3.84573 28655 ft 466 kts 150°
2026-05-03 20:38 55.20865 -3.81985 29030 ft 469 kts 150°
2026-05-03 20:38 55.17991 -3.79430 29545 ft 468 kts 150°
2026-05-03 20:38 55.15093 -3.76863 30056 ft 467 kts 150°
2026-05-03 20:39 55.12197 -3.74304 30514 ft 466 kts 151°
2026-05-03 20:39 55.09308 -3.71757 31001 ft 464 kts 151°
2026-05-03 20:39 55.06432 -3.69225 31503 ft 462 kts 152°
2026-05-03 20:39 55.03570 -3.66704 32017 ft 460 kts 152°
2026-05-03 20:40 55.00713 -3.64186 32533 ft 458 kts 152°
2026-05-03 20:40 54.97867 -3.61684 32909 ft 457 kts 152°
2026-05-03 20:40 54.95027 -3.59194 32999 ft 459 kts 153°